TimeEDT,TemperatureF,Dew PointF,Humidity,Sea Level PressureIn,VisibilityMPH,Wind Direction,Wind SpeedMPH,Gust SpeedMPH,PrecipitationIn,Events,Conditions,WindDirDegrees,DateUTC
12:56 AM,46.0,34.0,63,30.10,10.0,SSW,4.6,-,N/A,,Clear,200,2012-09-25 04:56:00
1:56 AM,45.0,34.0,65,30.10,10.0,SW,5.8,-,N/A,,Clear,230,2012-09-25 05:56:00
2:56 AM,45.0,35.1,68,30.11,10.0,SSW,3.5,-,N/A,,Clear,210,2012-09-25 06:56:00
3:56 AM,43.0,35.1,74,30.10,10.0,SW,4.6,-,N/A,,Clear,220,2012-09-25 07:56:00
4:56 AM,39.9,34.0,79,30.10,10.0,Calm,Calm,-,N/A,,Clear,0,2012-09-25 08:56:00
5:56 AM,42.1,35.1,76,30.11,10.0,SSW,3.5,-,N/A,,Clear,210,2012-09-25 09:56:00
6:56 AM,42.8,35.6,76,30.10,10.0,SW,4.6,-,N/A,,Clear,230,2012-09-25 10:56:00
7:56 AM,42.1,36.0,79,30.13,10.0,Calm,Calm,-,N/A,,Clear,0,2012-09-25 11:56:00
8:56 AM,51.1,37.9,61,30.12,10.0,SW,5.8,-,N/A,,Clear,220,2012-09-25 12:56:00
9:56 AM,55.0,39.0,55,30.11,10.0,SW,8.1,-,N/A,,Clear,220,2012-09-25 13:56:00
10:56 AM,59.0,39.9,49,30.12,10.0,SW,11.5,-,N/A,,Clear,220,2012-09-25 14:56:00
11:56 AM,60.1,39.9,47,30.13,10.0,SW,13.8,-,N/A,,Overcast,220,2012-09-25 15:56:00
12:56 PM,61.0,41.0,48,30.12,10.0,SW,12.7,17.3,N/A,,Scattered Clouds,220,2012-09-25 16:56:00
1:56 PM,60.1,41.0,49,30.09,10.0,South,8.1,-,N/A,,Partly Cloudy,180,2012-09-25 17:56:00
2:56 PM,62.6,42.8,48,30.07,10.0,SSW,8.1,-,N/A,,Mostly Cloudy,200,2012-09-25 18:56:00
3:39 PM,62.6,42.8,48,30.05,2.5,South,8.1,-,N/A,,Haze,190,2012-09-25 19:39:00
3:48 PM,62.6,42.8,48,30.05,10.0,SSW,6.9,-,N/A,,Overcast,200,2012-09-25 19:48:00
3:56 PM,62.1,42.1,48,30.06,10.0,South,5.8,-,N/A,,Overcast,180,2012-09-25 19:56:00
4:56 PM,62.1,43.0,50,30.05,10.0,South,8.1,-,N/A,,Overcast,180,2012-09-25 20:56:00
5:56 PM,62.1,43.0,50,30.04,10.0,Calm,Calm,-,N/A,,Overcast,0,2012-09-25 21:56:00
6:56 PM,60.1,46.0,60,30.04,10.0,SSE,5.8,-,N/A,,Overcast,150,2012-09-25 22:56:00
7:56 PM,57.2,46.4,67,30.05,10.0,SSW,5.8,-,N/A,,Overcast,200,2012-09-25 23:56:00
8:44 PM,55.4,48.2,77,30.06,9.0,SW,8.1,-,N/A,,Overcast,220,2012-09-26 00:44:00
8:56 PM,54.0,48.9,83,30.06,7.0,SW,6.9,-,0.01,Rain,Light Rain,220,2012-09-26 00:56:00
9:26 PM,53.6,50.0,88,30.05,10.0,SSW,3.5,-,0.01,,Overcast,200,2012-09-26 01:26:00
9:56 PM,53.6,50.0,88,30.05,10.0,South,3.5,-,N/A,,Overcast,190,2012-09-26 01:56:00
10:06 PM,53.6,50.0,88,30.05,10.0,South,4.6,-,N/A,,Overcast,170,2012-09-26 02:06:00
10:30 PM,53.6,51.8,94,30.04,10.0,SSE,5.8,-,0.01,,Overcast,150,2012-09-26 02:30:00
10:56 PM,53.6,51.8,94,30.04,10.0,SE,5.8,-,N/A,,Overcast,130,2012-09-26 02:56:00
11:46 PM,53.6,51.8,94,30.04,5.0,SSW,3.5,-,N/A,,Overcast,200,2012-09-26 03:46:00
11:56 PM,54.0,51.1,90,30.03,7.0,SSW,3.5,-,0.01,Rain,Light Rain,210,2012-09-26 03:56:00